TimeCDT,TemperatureF,Dew PointF,Humidity,Sea Level PressureIn,VisibilityMPH,Wind Direction,Wind SpeedMPH,Gust SpeedMPH,PrecipitationIn,Events,Conditions,WindDirDegrees,DateUTC
12:10 AM,66.2,64.4,94,29.73,10.0,Calm,Calm,-,N/A,,Clear,0,2013-06-30 05:10:00
12:30 AM,68.0,62.6,83,29.73,10.0,Calm,Calm,-,N/A,,Clear,0,2013-06-30 05:30:00
12:50 AM,66.2,62.6,88,29.73,10.0,Calm,Calm,-,N/A,,Clear,0,2013-06-30 05:50:00
1:10 AM,66.2,62.6,88,29.73,10.0,Calm,Calm,-,N/A,,Clear,0,2013-06-30 06:10:00
1:30 AM,64.4,62.6,94,29.72,10.0,Calm,Calm,-,N/A,,Clear,0,2013-06-30 06:30:00
1:50 AM,64.4,62.6,94,29.72,10.0,Calm,Calm,-,N/A,,Clear,0,2013-06-30 06:50:00
2:10 AM,64.4,60.8,88,29.72,10.0,WNW,3.5,-,N/A,,Clear,290,2013-06-30 07:10:00
2:30 AM,64.4,60.8,88,29.72,10.0,WNW,3.5,-,N/A,,Clear,290,2013-06-30 07:30:00
2:50 AM,64.4,60.8,88,29.72,10.0,SSE,3.5,-,N/A,,Clear,150,2013-06-30 07:50:00
3:10 AM,62.6,60.8,94,29.72,10.0,Calm,Calm,-,N/A,,Clear,0,2013-06-30 08:10:00
3:30 AM,62.6,60.8,94,29.72,10.0,WNW,4.6,-,N/A,,Clear,290,2013-06-30 08:30:00
3:50 AM,62.6,59.0,88,29.72,10.0,Calm,Calm,-,N/A,,Clear,0,2013-06-30 08:50:00
4:10 AM,62.6,59.0,88,29.72,10.0,Calm,Calm,-,N/A,,Clear,0,2013-06-30 09:10:00
4:30 AM,62.6,59.0,88,29.72,10.0,South,3.5,-,N/A,,Clear,170,2013-06-30 09:30:00
4:50 AM,62.6,59.0,88,29.72,10.0,Calm,Calm,-,N/A,,Clear,0,2013-06-30 09:50:00
5:10 AM,62.6,59.0,88,29.72,10.0,WNW,4.6,-,N/A,,Clear,300,2013-06-30 10:10:00
5:30 AM,60.8,59.0,94,29.73,10.0,Calm,Calm,-,N/A,,Clear,0,2013-06-30 10:30:00
5:50 AM,62.6,59.0,88,29.73,10.0,Calm,Calm,-,N/A,,Clear,0,2013-06-30 10:50:00
6:10 AM,62.6,59.0,88,29.75,10.0,Calm,Calm,-,N/A,,Clear,0,2013-06-30 11:10:00
6:30 AM,62.6,59.0,88,29.75,10.0,Calm,Calm,-,N/A,,Clear,0,2013-06-30 11:30:00
6:50 AM,64.4,60.8,88,29.76,10.0,NNW,3.5,-,N/A,,Clear,330,2013-06-30 11:50:00
7:10 AM,66.2,62.6,88,29.76,10.0,NNW,4.6,-,N/A,,Clear,340,2013-06-30 12:10:00
7:30 AM,68.0,60.8,78,29.76,10.0,NW,4.6,-,N/A,,Clear,310,2013-06-30 12:30:00
7:50 AM,68.0,59.0,73,29.76,10.0,NW,6.9,-,N/A,,Clear,310,2013-06-30 12:50:00
8:10 AM,69.8,60.8,73,29.77,10.0,NW,4.6,-,N/A,,Clear,320,2013-06-30 13:10:00
8:30 AM,71.6,62.6,73,29.77,10.0,NNE,4.6,-,N/A,,Clear,20,2013-06-30 13:30:00
8:50 AM,73.4,62.6,69,29.78,10.0,Calm,Calm,-,N/A,,Clear,0,2013-06-30 13:50:00
9:10 AM,73.4,60.8,65,29.77,10.0,NNW,4.6,-,N/A,,Partly Cloudy,340,2013-06-30 14:10:00
9:30 AM,75.2,62.6,65,29.77,10.0,WNW,4.6,-,N/A,,Scattered Clouds,290,2013-06-30 14:30:00
9:50 AM,75.2,60.8,61,29.77,10.0,WNW,5.8,-,N/A,,Clear,290,2013-06-30 14:50:00
10:10 AM,77.0,62.6,61,29.77,10.0,Calm,Calm,-,N/A,,Clear,0,2013-06-30 15:10:00
10:30 AM,77.0,60.8,57,29.77,10.0,WNW,4.6,-,N/A,,Clear,290,2013-06-30 15:30:00
10:50 AM,78.8,60.8,54,29.77,10.0,NW,8.1,-,N/A,,Partly Cloudy,310,2013-06-30 15:50:00
11:10 AM,78.8,62.6,57,29.78,10.0,NW,10.4,-,N/A,,Scattered Clouds,320,2013-06-30 16:10:00
11:30 AM,78.8,62.6,57,29.78,10.0,NW,9.2,-,N/A,,Mostly Cloudy,320,2013-06-30 16:30:00
11:50 AM,78.8,62.6,57,29.77,10.0,NW,10.4,16.1,N/A,,Scattered Clouds,320,2013-06-30 16:50:00
12:10 PM,80.6,59.0,48,29.77,10.0,West,6.9,-,N/A,,Partly Cloudy,280,2013-06-30 17:10:00
12:30 PM,80.6,60.8,51,29.77,10.0,NW,9.2,-,N/A,,Scattered Clouds,320,2013-06-30 17:30:00
12:50 PM,77.0,60.8,57,29.77,10.0,WNW,11.5,-,N/A,,Mostly Cloudy,300,2013-06-30 17:50:00
1:10 PM,80.6,62.6,54,29.77,10.0,WNW,9.2,-,N/A,,Scattered Clouds,290,2013-06-30 18:10:00
1:30 PM,80.6,62.6,54,29.76,10.0,WNW,11.5,-,N/A,,Partly Cloudy,300,2013-06-30 18:30:00
1:50 PM,80.6,60.8,51,29.76,10.0,NW,9.2,-,N/A,,Scattered Clouds,310,2013-06-30 18:50:00
2:10 PM,80.6,60.8,51,29.76,10.0,West,8.1,-,N/A,,Partly Cloudy,260,2013-06-30 19:10:00
2:30 PM,80.6,60.8,51,29.76,10.0,WNW,8.1,-,N/A,,Scattered Clouds,290,2013-06-30 19:30:00
2:50 PM,80.6,60.8,51,29.76,10.0,NW,8.1,-,N/A,,Partly Cloudy,310,2013-06-30 19:50:00
3:10 PM,82.4,60.8,48,29.76,10.0,NW,10.4,-,N/A,,Partly Cloudy,310,2013-06-30 20:10:00
3:30 PM,82.4,59.0,45,29.76,10.0,NW,9.2,-,N/A,,Clear,310,2013-06-30 20:30:00
3:50 PM,82.4,60.8,48,29.76,10.0,NNW,9.2,-,N/A,,Partly Cloudy,330,2013-06-30 20:50:00
4:10 PM,80.6,60.8,51,29.76,10.0,WNW,12.7,-,N/A,,Clear,290,2013-06-30 21:10:00
4:30 PM,80.6,60.8,51,29.76,10.0,WNW,8.1,-,N/A,,Scattered Clouds,300,2013-06-30 21:30:00
4:50 PM,80.6,62.6,54,29.76,10.0,WNW,11.5,18.4,N/A,,Scattered Clouds,300,2013-06-30 21:50:00
5:10 PM,80.6,60.8,51,29.76,10.0,NW,11.5,-,N/A,,Partly Cloudy,310,2013-06-30 22:10:00
5:30 PM,80.6,59.0,48,29.76,10.0,NW,10.4,-,N/A,,Clear,310,2013-06-30 22:30:00
5:50 PM,78.8,62.6,57,29.76,10.0,NW,11.5,-,N/A,,Clear,310,2013-06-30 22:50:00
6:10 PM,77.0,62.6,61,29.77,10.0,NNW,10.4,-,N/A,,Clear,330,2013-06-30 23:10:00
6:30 PM,77.0,62.6,61,29.77,10.0,NNW,9.2,-,N/A,,Clear,340,2013-06-30 23:30:00
6:50 PM,77.0,62.6,61,29.77,10.0,NW,5.8,-,N/A,,Clear,320,2013-06-30 23:50:00
7:10 PM,75.2,60.8,61,29.78,10.0,NW,9.2,-,N/A,,Clear,310,2013-07-01 00:10:00
7:30 PM,75.2,60.8,61,29.79,10.0,NW,6.9,-,N/A,,Clear,310,2013-07-01 00:30:00
7:50 PM,73.4,62.6,69,29.79,10.0,NNW,3.5,-,N/A,,Clear,330,2013-07-01 00:50:00
8:10 PM,71.6,62.6,73,29.79,10.0,NNW,4.6,-,N/A,,Clear,330,2013-07-01 01:10:00
8:30 PM,71.6,62.6,73,29.80,10.0,NW,5.8,-,N/A,,Clear,310,2013-07-01 01:30:00
8:50 PM,71.6,62.6,73,29.80,10.0,NNW,3.5,-,N/A,,Clear,330,2013-07-01 01:50:00
9:10 PM,69.8,62.6,78,29.81,10.0,NNW,3.5,-,N/A,,Clear,340,2013-07-01 02:10:00
9:30 PM,68.0,62.6,83,29.81,10.0,NNW,3.5,-,N/A,,Clear,340,2013-07-01 02:30:00
9:50 PM,68.0,62.6,83,29.81,10.0,Calm,Calm,-,N/A,,Clear,0,2013-07-01 02:50:00
10:10 PM,66.2,62.6,88,29.82,10.0,Calm,Calm,-,N/A,,Clear,0,2013-07-01 03:10:00
10:30 PM,68.0,62.6,83,29.82,10.0,Calm,Calm,-,N/A,,Clear,0,2013-07-01 03:30:00
10:50 PM,66.2,62.6,88,29.82,10.0,Calm,Calm,-,N/A,,Clear,0,2013-07-01 03:50:00
11:10 PM,66.2,62.6,88,29.82,10.0,West,3.5,-,N/A,,Clear,270,2013-07-01 04:10:00
11:30 PM,66.2,62.6,88,29.82,10.0,Calm,Calm,-,N/A,,Clear,0,2013-07-01 04:30:00
11:50 PM,64.4,62.6,94,29.82,10.0,Calm,Calm,-,N/A,,Clear,0,2013-07-01 04:50:00